Location: Mahannah Oil Field
(37.4664°N, 96.6003°W)
Time: 00:55:28
(UTC+00:00)

deb Explorer IX - Pass Details

Date: 25 January 2021
Orbit: 537 x 1102 km, 38.8° (Epoch: 25 February)

Event Time Altitude Azimuth Distance (km) Brightness Sun altitude
Rises 22:38:24 0° 230° (SW) 3,866 ? 10.5°
Reaches altitude 10° 22:41:20 10° 225° (SW) 2,869 ? 10.0°
Maximum altitude 22:48:00 47° 154° (SSE) 1,267 ? 8.9°
Drops below altitude 10° 22:53:54 10° 82° (E) 2,549 ? 7.9°
Sets 22:56:22 0° 76° (ENE) 3,401 ? 7.5°
